#timestamp,LO_Frequency,Hit,StdDev 
1653487215.2,286046998.4,Y
1653487235.1,286047000.7,P
1653487236.0,286047000.7,N
1653487255.8,286047000.9,N
1653487275.7,286047000.6,N
1653487295.5,286047000.9,N
1653487315.3,286046998.1,Y
1653487335.2,286046998.4,P
1653487355.0,286047000.0,N
1653487355.9,286047000.0,N
1653487375.8,286046998.5,N
1653487395.6,286046999.1,N
1653487415.4,286046999.2,N
1653487435.3,286046999.2,N
1653487455.1,286046998.4,N
1653487475.8,286046998.5,N
1653487495.7,286047001.1,N
1653487515.5,286046998.6,N
1653487535.4,286046998.9,N
1653487555.2,286046998.7,N
1653487575.0,286046998.4,N
1653487575.9,286046998.4,N
1653487595.8,286047000.4,N
1653487615.6,286047000.1,N
1653487635.4,286047000.9,N
1653487655.3,286047000.6,N
1653487675.1,286047002.4,N
1653487695.9,286047002.6,N
1653487715.7,286047002.7,N
1653487735.5,286047000.6,N
1653487755.4,286047000.9,N
1653487775.2,286046998.1,N
1653487795.0,286046999.7,N
1653487795.9,286046999.7,N
1653487815.8,286047000.9,N
1653487835.6,286047002.4,N
1653487855.5,286047000.6,N
1653487875.3,286047000.5,N
1653487895.1,286047002.2,N
1653487915.9,286047001.6,N
1653487935.7,286047001.5,N
1653487955.5,286047002.2,N
1653487975.4,286047001.9,N
1653487995.2,286047002.4,N
1653488015.1,286047002.8,N
1653488016.0,286047002.8,N
1653488035.8,286047002.7,N
1653488055.6,286047002.3,N
1653488075.5,286047002.7,N
1653488095.3,286047000.7,N
1653488115.1,286047001.0,N
1653488135.9,286046999.8,N
1653488155.7,286047002.4,N
1653488175.6,286047002.3,N
1653488195.4,286046999.9,N
1653488215.2,286046999.9,N
1653488235.1,286047002.4,N
1653488236.0,286047002.4,N
1653488255.8,286046999.7,N
1653488275.6,286047002.3,N
1653488295.5,286047002.4,N
1653488315.3,286046999.8,N
1653488335.2,286046999.9,N
1653488355.9,286047000.1,N
1653488375.7,286047000.2,N
1653488395.6,286047001.5,N
1653488415.4,286047002.2,N
1653488435.2,286047001.6,N
1653488455.1,286046999.7,N
1653488456.0,286046999.7,N
1653488475.8,286047000.2,N
1653488495.7,286046998.4,N
1653488515.5,286047001.1,N
1653488535.3,286047000.4,N
1653488555.2,286047000.0,N
1653488575.0,286047001.0,N
1653488575.9,286047001.0,N
1653488595.8,286047000.4,N
1653488615.6,286047001.2,N
1653488635.4,286047000.8,N
1653488655.3,286047000.5,N
1653488675.1,286047002.8,N
1653488695.8,286047000.1,N
1653488715.7,286047002.4,N
1653488735.5,286047002.3,N
1653488755.4,286047002.3,N
1653488775.2,286047002.5,N
1653488795.0,286047002.6,N
1653488795.9,286047002.6,N
1653488815.8,286047002.8,N
1653488835.6,286047002.8,N
1653488855.5,286047000.5,N
1653488875.3,286047000.6,N
1653488895.1,286047000.9,N
1653488915.9,286047000.4,N
1653488935.7,286046999.8,N
1653488955.6,286047000.2,N
1653488975.4,286047000.4,N
1653488995.2,286047000.2,N
1653489015.1,286047002.8,N
1653489016.0,286047002.8,N
1653489035.8,286047002.8,N
1653489055.6,286047002.5,N
1653489075.5,286047002.0,N
1653489095.3,286046999.9,N
1653489115.2,286046999.8,N
1653489135.9,286046999.9,N
1653489155.7,286047002.7,N
1653489175.6,286047002.1,N
1653489195.4,286047002.4,N
1653489215.2,286047002.7,N
1653489235.1,286047002.3,N
1653489236.0,286047002.3,N
1653489255.8,286047002.3,N
1653489275.7,286046999.7,N
1653489295.5,286047000.0,N
1653489315.3,286047002.5,N
1653489335.2,286047002.1,N
1653489355.0,286047000.1,N
1653489355.9,286047000.1,N
1653489375.7,286047001.1,N
1653489395.6,286046999.9,N
1653489415.4,286047002.1,N
1653489435.3,286047001.7,N
1653489455.1,286047001.3,N
1653489456.0,286047001.3,N
1653489475.8,286047002.1,N
1653489495.7,286047001.6,N
1653489515.5,286047002.1,N
1653489535.3,286047002.7,N
1653489555.2,286047002.4,N
1653489575.0,286047002.7,N
1653489575.9,286047002.7,N
1653489595.8,286047002.3,N
1653489615.6,286047002.6,N
1653489635.4,286047002.8,N
1653489655.3,286046999.7,N
1653489675.1,286047000.0,N
1653489695.9,286047000.6,N
1653489715.7,286047000.1,N
1653489735.5,286047000.8,N
1653489755.4,286047000.0,N
1653489775.2,286047002.8,N
1653489795.0,286046999.8,N
1653489795.9,286046999.8,N
1653489815.8,286047002.2,N
1653489835.6,286047000.1,N
1653489855.5,286047000.2,N
1653489875.3,286047000.4,N
1653489895.1,286047000.9,N
1653489915.9,286047000.9,N
1653489935.7,286046998.9,N
1653489955.5,286046999.2,N
1653489975.4,286046999.3,N
1653489995.2,286046997.8,N
1653490015.1,286046997.0,N
1653490016.0,286046997.0,N
1653490035.8,286046997.3,N
1653490055.6,286046999.6,N
1653490075.5,286046999.3,N
1653490095.3,286047001.0,N
1653490115.1,286046998.7,N
1653490135.9,286046999.9,N
1653490155.7,286047000.5,N
1653490175.6,286046998.2,N
1653490195.4,286047001.0,N
1653490215.2,286047000.5,N
1653490235.1,286047000.7,N
1653490236.0,286047000.7,N
1653490255.8,286047000.3,N
1653490275.7,286047000.8,N
1653490295.5,286046998.6,N
1653490315.3,286046998.5,N
1653490335.2,286047000.7,N
1653490355.0,286046999.7,N
1653490355.9,286046999.7,N
1653490375.7,286047000.0,N
1653490395.6,286047002.7,N
1653490415.4,286047000.2,N
1653490435.3,286047000.7,N
1653490455.1,286046998.8,N
1653490456.0,286046998.8,N
1653490475.8,286046998.9,N
1653490495.7,286046999.0,N
1653490515.5,286046999.4,N
1653490535.3,286046999.0,N
1653490555.2,286046998.6,N
1653490575.0,286046998.6,N
1653490575.9,286046998.6,N
1653490595.8,286046998.8,N
1653490615.6,286047001.1,N
1653490635.4,286046996.5,Y
1653490655.3,286046999.6,P
1653490675.1,286046998.9,P
1653490695.9,286046999.1,N
1653490715.7,286046996.5,Y
1653490735.5,286046998.3,P
1653490755.4,286046999.3,N
1653490775.2,286046998.8,N
1653490795.0,286046999.3,N
1653490795.9,286046999.3,N
